Time,TemperatureF,DewpointF,PressureIn,WindDirection,WindDirectionDegrees,WindSpeedMPH,WindSpeedGustMPH,Humidity,HourlyPrecipIn,Conditions,Clouds,dailyrainin,SoftwareType,DateUTC
2013-10-28 00:00:00,40.5,31.5,29.93,West,270,0.0,0.0,70,0.00,,,-99.99,open2300 version1.11,2013-10-28 04:00:00,
2013-10-28 00:05:00,40.3,31.3,29.94,West,270,0.0,0.0,70,0.00,,,-99.99,open2300 version1.11,2013-10-28 04:05:00,
2013-10-28 00:10:00,40.1,31.1,29.93,West,270,0.0,0.0,70,0.00,,,-99.99,open2300 version1.11,2013-10-28 04:10:00,
2013-10-28 00:15:00,39.9,30.9,29.94,West,270,0.0,0.0,70,0.00,,,-99.99,open2300 version1.11,2013-10-28 04:15:00,
2013-10-28 00:20:00,39.9,31.2,29.94,West,270,0.0,0.0,71,0.00,,,-99.99,open2300 version1.11,2013-10-28 04:20:00,
2013-10-28 00:25:00,39.9,31.6,29.94,West,270,0.0,0.0,72,0.00,,,-99.99,open2300 version1.11,2013-10-28 04:25:00,
2013-10-28 00:30:00,39.7,31.4,29.94,West,270,0.0,0.0,72,0.00,,,-99.99,open2300 version1.11,2013-10-28 04:30:00,
2013-10-28 00:35:00,39.6,31.2,29.94,West,270,0.0,0.0,72,0.00,,,-99.99,open2300 version1.11,2013-10-28 04:35:00,
2013-10-28 00:40:00,39.4,31.1,29.94,West,270,0.0,0.0,72,0.00,,,-99.99,open2300 version1.11,2013-10-28 04:40:00,
2013-10-28 00:50:00,39.0,31.1,29.95,West,270,0.0,0.0,73,0.00,,,-99.99,open2300 version1.11,2013-10-28 04:50:00,
2013-10-28 00:55:00,38.8,30.9,29.95,West,270,0.0,0.0,73,0.00,,,-99.99,open2300 version1.11,2013-10-28 04:55:00,
2013-10-28 01:10:00,38.5,30.5,29.95,West,270,0.0,0.0,73,0.00,,,-99.99,open2300 version1.11,2013-10-28 05:10:00,
2013-10-28 01:15:00,38.1,30.5,29.95,West,270,0.0,0.0,74,0.00,,,-99.99,open2300 version1.11,2013-10-28 05:15:00,
2013-10-28 01:20:00,38.1,30.9,29.95,West,270,0.0,0.0,75,0.00,,,-99.99,open2300 version1.11,2013-10-28 05:20:00,
2013-10-28 01:25:00,37.9,30.7,29.95,West,270,0.0,0.0,75,0.00,,,-99.99,open2300 version1.11,2013-10-28 05:25:00,
2013-10-28 01:30:00,37.9,30.7,29.95,West,270,0.0,0.0,75,0.00,,,-99.99,open2300 version1.11,2013-10-28 05:30:00,
2013-10-28 01:35:00,37.9,30.7,29.95,West,270,0.0,0.0,75,0.00,,,-99.99,open2300 version1.11,2013-10-28 05:35:00,
2013-10-28 01:45:00,37.6,30.7,29.95,West,270,0.0,0.0,76,0.00,,,-99.99,open2300 version1.11,2013-10-28 05:45:00,
2013-10-28 01:50:00,37.4,30.5,29.95,WSW,247,0.0,0.0,76,0.00,,,-99.99,open2300 version1.11,2013-10-28 05:50:00,
2013-10-28 02:00:00,37.2,30.3,29.95,West,270,0.0,0.2,76,0.00,,,-99.99,open2300 version1.11,2013-10-28 06:00:00,
2013-10-28 02:10:00,37.2,30.3,29.96,West,270,0.0,0.5,76,0.00,,,-99.99,open2300 version1.11,2013-10-28 06:10:00,
2013-10-28 02:15:00,37.2,30.7,29.96,West,270,0.1,0.9,77,0.00,,,-99.99,open2300 version1.11,2013-10-28 06:15:00,
2013-10-28 02:20:00,37.4,30.9,29.96,West,270,0.1,0.9,77,0.00,,,-99.99,open2300 version1.11,2013-10-28 06:20:00,
2013-10-28 02:30:00,37.6,31.0,29.96,West,270,0.0,0.7,77,0.00,,,-99.99,open2300 version1.11,2013-10-28 06:30:00,
2013-10-28 02:40:00,37.6,31.0,29.96,West,270,0.0,0.0,77,0.00,,,-99.99,open2300 version1.11,2013-10-28 06:40:00,
2013-10-28 02:45:00,37.6,31.0,29.96,West,270,0.1,1.6,77,0.00,,,-99.99,open2300 version1.11,2013-10-28 06:45:00,
2013-10-28 02:50:00,37.6,31.0,29.96,West,270,0.1,1.1,77,0.00,,,-99.99,open2300 version1.11,2013-10-28 06:50:00,
2013-10-28 03:00:00,37.8,31.2,29.97,West,270,0.1,0.9,77,0.00,,,-99.99,open2300 version1.11,2013-10-28 07:00:00,
2013-10-28 03:05:00,37.8,31.2,29.97,West,270,0.0,0.9,77,0.00,,,-99.99,open2300 version1.11,2013-10-28 07:05:00,
2013-10-28 03:10:00,37.8,31.2,29.97,West,270,0.0,0.0,77,0.00,,,-99.99,open2300 version1.11,2013-10-28 07:10:00,
2013-10-28 03:15:00,37.8,31.2,29.97,West,270,0.0,0.0,77,0.00,,,-99.99,open2300 version1.11,2013-10-28 07:15:00,
2013-10-28 03:20:00,37.6,31.0,29.97,West,270,0.0,0.0,77,0.00,,,-99.99,open2300 version1.11,2013-10-28 07:20:00,
2013-10-28 03:25:00,37.6,31.0,29.97,West,270,0.0,0.0,77,0.00,,,-99.99,open2300 version1.11,2013-10-28 07:25:00,
2013-10-28 03:30:00,37.6,31.0,29.97,West,270,0.0,0.0,77,0.00,,,-99.99,open2300 version1.11,2013-10-28 07:30:00,
2013-10-28 03:35:00,37.4,30.9,29.97,West,270,0.0,0.0,77,0.00,,,-99.99,open2300 version1.11,2013-10-28 07:35:00,
2013-10-28 03:40:00,37.4,31.2,29.98,West,270,0.0,0.0,78,0.00,,,-99.99,open2300 version1.11,2013-10-28 07:40:00,
2013-10-28 03:45:00,37.2,31.0,29.98,West,270,0.0,0.0,78,0.00,,,-99.99,open2300 version1.11,2013-10-28 07:45:00,
2013-10-28 03:50:00,37.2,31.0,29.98,West,270,0.0,0.0,78,0.00,,,-99.99,open2300 version1.11,2013-10-28 07:50:00,
2013-10-28 03:55:00,37.2,31.0,29.98,West,270,0.0,0.0,78,0.00,,,-99.99,open2300 version1.11,2013-10-28 07:55:00,
2013-10-28 04:00:00,37.0,30.8,29.98,West,270,0.0,0.0,78,0.00,,,-99.99,open2300 version1.11,2013-10-28 08:00:00,
2013-10-28 04:10:00,36.7,30.4,29.99,West,270,0.0,0.0,78,0.00,,,-99.99,open2300 version1.11,2013-10-28 08:10:00,
2013-10-28 04:15:00,36.5,30.3,29.99,West,270,0.0,0.0,78,0.00,,,-99.99,open2300 version1.11,2013-10-28 08:15:00,
2013-10-28 04:20:00,36.5,30.3,29.99,West,270,0.0,0.0,78,0.00,,,-99.99,open2300 version1.11,2013-10-28 08:20:00,
2013-10-28 04:25:00,36.3,30.1,29.99,West,270,0.0,0.0,78,0.00,,,-99.99,open2300 version1.11,2013-10-28 08:25:00,
2013-10-28 04:30:00,36.3,30.1,29.99,West,270,0.0,0.0,78,0.00,,,-99.99,open2300 version1.11,2013-10-28 08:30:00,
2013-10-28 04:35:00,36.1,29.9,29.99,West,270,0.0,0.0,78,0.00,,,-99.99,open2300 version1.11,2013-10-28 08:35:00,
2013-10-28 04:40:00,36.0,30.1,29.99,West,270,0.0,0.0,79,0.00,,,-99.99,open2300 version1.11,2013-10-28 08:40:00,
2013-10-28 04:45:00,35.8,29.9,29.99,West,270,0.0,0.0,79,0.00,,,-99.99,open2300 version1.11,2013-10-28 08:45:00,
2013-10-28 04:50:00,35.8,29.6,29.99,West,270,0.0,0.0,78,0.00,,,-99.99,open2300 version1.11,2013-10-28 08:50:00,
2013-10-28 04:55:00,35.6,29.7,29.99,West,270,0.0,0.0,79,0.00,,,-99.99,open2300 version1.11,2013-10-28 08:55:00,
2013-10-28 05:00:00,35.4,29.5,29.99,West,270,0.0,0.0,79,0.00,,,-99.99,open2300 version1.11,2013-10-28 09:00:00,
2013-10-28 05:10:00,35.4,29.5,29.99,West,270,0.0,0.0,79,0.00,,,-99.99,open2300 version1.11,2013-10-28 09:10:00,
2013-10-28 05:15:00,35.4,29.8,30.00,West,270,0.0,0.0,80,0.00,,,-99.99,open2300 version1.11,2013-10-28 09:15:00,
2013-10-28 05:20:00,35.4,29.8,30.00,West,270,0.0,0.0,80,0.00,,,-99.99,open2300 version1.11,2013-10-28 09:20:00,
2013-10-28 05:25:00,35.2,29.7,30.00,West,270,0.0,0.0,80,0.00,,,-99.99,open2300 version1.11,2013-10-28 09:25:00,
2013-10-28 05:30:00,35.2,29.7,30.00,West,270,0.0,0.0,80,0.00,,,-99.99,open2300 version1.11,2013-10-28 09:30:00,
2013-10-28 05:35:00,35.2,29.7,30.01,West,270,0.0,0.0,80,0.00,,,-99.99,open2300 version1.11,2013-10-28 09:35:00,
2013-10-28 05:45:00,34.9,29.3,30.01,West,270,0.0,0.0,80,0.00,,,-99.99,open2300 version1.11,2013-10-28 09:45:00,
2013-10-28 05:50:00,34.9,29.3,30.01,West,270,0.0,0.0,80,0.00,,,-99.99,open2300 version1.11,2013-10-28 09:50:00,
2013-10-28 05:55:00,34.9,29.3,30.02,West,270,0.0,0.0,80,0.00,,,-99.99,open2300 version1.11,2013-10-28 09:55:00,
2013-10-28 06:05:00,34.5,28.9,30.02,West,270,0.0,0.0,80,0.00,,,-99.99,open2300 version1.11,2013-10-28 10:05:00,
2013-10-28 06:10:00,34.3,28.8,30.03,West,270,0.0,0.0,80,0.00,,,-99.99,open2300 version1.11,2013-10-28 10:10:00,
2013-10-28 06:20:00,34.3,28.8,30.03,West,270,0.0,0.0,80,0.00,,,-99.99,open2300 version1.11,2013-10-28 10:20:00,
2013-10-28 06:25:00,34.3,28.8,30.04,West,270,0.0,0.0,80,0.00,,,-99.99,open2300 version1.11,2013-10-28 10:25:00,
2013-10-28 06:30:00,34.5,28.9,30.03,West,270,0.0,0.0,80,0.00,,,-99.99,open2300 version1.11,2013-10-28 10:30:00,
2013-10-28 06:35:00,34.7,29.1,30.03,West,270,0.0,0.0,80,0.00,,,-99.99,open2300 version1.11,2013-10-28 10:35:00,
2013-10-28 06:40:00,34.9,29.3,30.04,West,270,0.0,0.0,80,0.00,,,-99.99,open2300 version1.11,2013-10-28 10:40:00,
2013-10-28 06:45:00,34.9,29.6,30.04,West,270,0.0,0.0,81,0.00,,,-99.99,open2300 version1.11,2013-10-28 10:45:00,
2013-10-28 06:50:00,35.2,29.7,30.04,West,270,0.0,0.0,80,0.00,,,-99.99,open2300 version1.11,2013-10-28 10:50:00,
2013-10-28 06:55:00,35.2,29.7,30.04,West,270,0.0,0.0,80,0.00,,,-99.99,open2300 version1.11,2013-10-28 10:55:00,
2013-10-28 07:00:00,35.2,29.7,30.04,West,270,0.0,0.0,80,0.00,,,-99.99,open2300 version1.11,2013-10-28 11:00:00,
2013-10-28 07:05:00,35.2,29.7,30.05,West,270,0.0,0.0,80,0.00,,,-99.99,open2300 version1.11,2013-10-28 11:05:00,
2013-10-28 07:10:00,35.4,29.8,30.05,West,270,0.0,0.0,80,0.00,,,-99.99,open2300 version1.11,2013-10-28 11:10:00,
2013-10-28 07:20:00,35.4,29.8,30.05,West,270,0.0,0.0,80,0.00,,,-99.99,open2300 version1.11,2013-10-28 11:20:00,
2013-10-28 07:30:00,35.2,29.7,30.06,West,270,0.0,0.0,80,0.00,,,-99.99,open2300 version1.11,2013-10-28 11:30:00,
2013-10-28 07:35:00,35.2,29.7,30.06,West,270,0.0,0.0,80,0.00,,,-99.99,open2300 version1.11,2013-10-28 11:35:00,
2013-10-28 07:40:00,35.2,29.7,30.06,West,270,0.0,0.0,80,0.00,,,-99.99,open2300 version1.11,2013-10-28 11:40:00,
2013-10-28 07:45:00,35.2,29.7,30.07,West,270,0.0,0.0,80,0.00,,,-99.99,open2300 version1.11,2013-10-28 11:45:00,
2013-10-28 07:50:00,35.2,29.7,30.07,West,270,0.0,0.0,80,0.00,,,-99.99,open2300 version1.11,2013-10-28 11:50:00,
2013-10-28 07:55:00,35.2,29.9,30.07,West,270,0.0,0.0,81,0.00,,,-99.99,open2300 version1.11,2013-10-28 11:55:00,
2013-10-28 08:00:00,35.2,29.9,30.07,West,270,0.0,0.0,81,0.00,,,-99.99,open2300 version1.11,2013-10-28 12:00:00,
2013-10-28 08:05:00,35.4,30.1,30.08,West,270,0.0,0.0,81,0.00,,,-99.99,open2300 version1.11,2013-10-28 12:05:00,
2013-10-28 08:15:00,35.4,30.1,30.08,West,270,0.0,0.0,81,0.00,,,-99.99,open2300 version1.11,2013-10-28 12:15:00,
2013-10-28 08:20:00,35.4,30.1,30.08,West,270,0.0,0.0,81,0.00,,,-99.99,open2300 version1.11,2013-10-28 12:20:00,
2013-10-28 08:25:00,35.8,30.5,30.08,West,270,0.0,0.0,81,0.00,,,-99.99,open2300 version1.11,2013-10-28 12:25:00,
2013-10-28 08:35:00,36.1,31.1,30.10,NNW,337,0.0,0.0,82,0.00,,,-99.99,open2300 version1.11,2013-10-28 12:35:00,
2013-10-28 08:40:00,36.3,31.0,30.10,North,0,0.0,0.9,81,0.00,,,-99.99,open2300 version1.11,2013-10-28 12:40:00,
2013-10-28 08:45:00,36.7,31.4,30.10,North,0,0.0,0.0,81,0.00,,,-99.99,open2300 version1.11,2013-10-28 12:45:00,
2013-10-28 08:50:00,37.2,31.9,30.10,North,0,0.0,0.0,81,0.00,,,-99.99,open2300 version1.11,2013-10-28 12:50:00,
2013-10-28 09:00:00,37.8,32.8,30.11,NNE,22,0.0,0.0,82,0.00,,,-99.99,open2300 version1.11,2013-10-28 13:00:00,
2013-10-28 09:10:00,38.3,33.0,30.12,ENE,67,0.1,1.1,81,0.00,,,-99.99,open2300 version1.11,2013-10-28 13:10:00,
2013-10-28 09:15:00,38.5,33.2,30.12,ENE,67,0.0,0.0,81,0.00,,,-99.99,open2300 version1.11,2013-10-28 13:15:00,
2013-10-28 09:20:00,38.8,33.5,30.12,East,85,0.2,2.2,81,0.00,,,-99.99,open2300 version1.11,2013-10-28 13:20:00,
2013-10-28 09:30:00,39.0,33.4,30.13,NE,37,0.1,2.0,80,0.00,,,-99.99,open2300 version1.11,2013-10-28 13:30:00,
2013-10-28 09:35:00,39.4,33.8,30.13,NNE,31,0.4,5.4,80,0.00,,,-99.99,open2300 version1.11,2013-10-28 13:35:00,
2013-10-28 09:40:00,39.7,34.1,30.13,ESE,106,1.3,4.5,80,0.00,,,-99.99,open2300 version1.11,2013-10-28 13:40:00,
2013-10-28 09:45:00,39.9,34.3,30.13,NE,55,0.9,3.6,80,0.00,,,-99.99,open2300 version1.11,2013-10-28 13:45:00,
2013-10-28 09:50:00,40.1,34.4,30.13,NNE,22,0.1,2.0,80,0.00,,,-99.99,open2300 version1.11,2013-10-28 13:50:00,
2013-10-28 09:55:00,40.5,34.8,30.13,ENE,76,0.4,3.1,80,0.00,,,-99.99,open2300 version1.11,2013-10-28 13:55:00,
2013-10-28 10:00:00,40.6,34.6,30.14,NE,42,0.2,1.3,79,0.00,,,-99.99,open2300 version1.11,2013-10-28 14:00:00,
2013-10-28 10:05:00,40.8,34.7,30.14,NE,55,0.3,3.1,79,0.00,,,-99.99,open2300 version1.11,2013-10-28 14:05:00,
2013-10-28 10:10:00,41.0,34.9,30.14,ENE,78,0.3,2.2,79,0.00,,,-99.99,open2300 version1.11,2013-10-28 14:10:00,
2013-10-28 10:15:00,41.2,35.1,30.14,East,80,0.9,3.4,79,0.00,,,-99.99,open2300 version1.11,2013-10-28 14:15:00,
2013-10-28 10:20:00,41.5,35.5,30.15,East,79,0.9,5.6,79,0.00,,,-99.99,open2300 version1.11,2013-10-28 14:20:00,
2013-10-28 10:30:00,41.7,35.3,30.15,ENE,69,1.1,5.1,78,0.00,,,-99.99,open2300 version1.11,2013-10-28 14:30:00,
2013-10-28 10:35:00,41.9,35.5,30.15,NE,47,0.7,4.0,78,0.00,,,-99.99,open2300 version1.11,2013-10-28 14:35:00,
2013-10-28 10:40:00,42.1,35.7,30.16,East,99,0.6,4.0,78,0.00,,,-99.99,open2300 version1.11,2013-10-28 14:40:00,
2013-10-28 10:45:00,42.4,36.0,30.15,East,94,0.8,6.5,78,0.00,,,-99.99,open2300 version1.11,2013-10-28 14:45:00,
2013-10-28 10:50:00,42.6,36.2,30.16,NNE,22,0.1,2.2,78,0.00,,,-99.99,open2300 version1.11,2013-10-28 14:50:00,
2013-10-28 10:55:00,42.8,36.4,30.16,East,95,0.6,4.7,78,0.00,,,-99.99,open2300 version1.11,2013-10-28 14:55:00,
2013-10-28 11:00:00,43.0,36.2,30.16,NE,34,0.4,2.9,77,0.00,,,-99.99,open2300 version1.11,2013-10-28 15:00:00,
2013-10-28 11:05:00,43.3,36.6,30.16,NE,51,1.8,6.9,77,0.00,,,-99.99,open2300 version1.11,2013-10-28 15:05:00,
2013-10-28 11:15:00,43.7,36.6,30.17,East,94,1.0,3.8,76,0.00,,,-99.99,open2300 version1.11,2013-10-28 15:15:00,
2013-10-28 11:20:00,44.2,36.8,30.17,ESE,103,2.4,6.7,75,0.00,,,-99.99,open2300 version1.11,2013-10-28 15:20:00,
2013-10-28 11:25:00,44.4,37.0,30.17,ENE,63,2.5,6.0,75,0.00,,,-99.99,open2300 version1.11,2013-10-28 15:25:00,
2013-10-28 11:30:00,44.4,37.0,30.17,NE,45,3.4,5.8,75,0.00,,,-99.99,open2300 version1.11,2013-10-28 15:30:00,
2013-10-28 11:35:00,44.8,37.0,30.17,ENE,68,4.2,8.7,74,0.00,,,-99.99,open2300 version1.11,2013-10-28 15:35:00,
2013-10-28 11:40:00,45.0,36.8,30.18,East,99,3.2,8.5,73,0.00,,,-99.99,open2300 version1.11,2013-10-28 15:40:00,
2013-10-28 11:45:00,45.1,37.0,30.18,ENE,77,2.6,7.6,73,0.00,,,-99.99,open2300 version1.11,2013-10-28 15:45:00,
2013-10-28 11:50:00,45.5,37.4,30.18,ENE,78,1.9,5.8,73,0.00,,,-99.99,open2300 version1.11,2013-10-28 15:50:00,
2013-10-28 11:55:00,45.9,37.4,30.19,East,83,3.2,7.6,72,0.00,,,-99.99,open2300 version1.11,2013-10-28 15:55:00,
2013-10-28 12:05:00,46.2,37.4,30.19,East,87,1.6,6.5,71,0.00,,,-99.99,open2300 version1.11,2013-10-28 16:05:00,
2013-10-28 12:10:00,46.6,37.7,30.19,East,100,2.7,7.6,71,0.00,,,-99.99,open2300 version1.11,2013-10-28 16:10:00,
2013-10-28 12:15:00,46.6,37.4,30.19,ESE,107,2.4,6.7,70,0.00,,,-99.99,open2300 version1.11,2013-10-28 16:15:00,
2013-10-28 12:25:00,47.1,37.5,30.19,ESE,111,3.7,8.5,69,0.00,,,-99.99,open2300 version1.11,2013-10-28 16:25:00,
2013-10-28 12:30:00,47.1,37.5,30.19,ESE,107,2.3,7.8,69,0.00,,,-99.99,open2300 version1.11,2013-10-28 16:30:00,
2013-10-28 12:35:00,47.3,37.3,30.19,ESE,105,1.7,6.3,68,0.00,,,-99.99,open2300 version1.11,2013-10-28 16:35:00,
2013-10-28 12:45:00,47.7,37.6,30.20,East,94,2.8,6.7,68,0.00,,,-99.99,open2300 version1.11,2013-10-28 16:45:00,
2013-10-28 12:55:00,48.0,37.9,30.19,ESE,112,0.5,3.1,68,0.00,,,-99.99,open2300 version1.11,2013-10-28 16:55:00,
2013-10-28 13:00:00,48.0,37.5,30.19,East,88,0.9,4.7,67,0.00,,,-99.99,open2300 version1.11,2013-10-28 17:00:00,
2013-10-28 13:10:00,48.7,38.2,30.19,NE,56,1.7,5.1,67,0.00,,,-99.99,open2300 version1.11,2013-10-28 17:10:00,
2013-10-28 13:15:00,48.7,37.8,30.20,ENE,69,1.9,5.6,66,0.00,,,-99.99,open2300 version1.11,2013-10-28 17:15:00,
2013-10-28 13:20:00,48.7,37.8,30.19,East,82,0.5,2.7,66,0.00,,,-99.99,open2300 version1.11,2013-10-28 17:20:00,
2013-10-28 13:25:00,48.7,37.8,30.20,ENE,74,1.1,4.5,66,0.00,,,-99.99,open2300 version1.11,2013-10-28 17:25:00,
2013-10-28 13:30:00,48.7,37.8,30.20,ENE,69,1.2,4.9,66,0.00,,,-99.99,open2300 version1.11,2013-10-28 17:30:00,
2013-10-28 13:40:00,49.1,37.8,30.19,ESE,106,1.4,4.5,65,0.00,,,-99.99,open2300 version1.11,2013-10-28 17:40:00,
2013-10-28 13:45:00,49.1,37.8,30.19,ESE,116,2.6,6.7,65,0.00,,,-99.99,open2300 version1.11,2013-10-28 17:45:00,
2013-10-28 13:50:00,49.1,37.4,30.19,East,94,1.7,5.4,64,0.00,,,-99.99,open2300 version1.11,2013-10-28 17:50:00,
2013-10-28 13:55:00,49.1,37.8,30.19,East,86,0.8,3.8,65,0.00,,,-99.99,open2300 version1.11,2013-10-28 17:55:00,
2013-10-28 14:00:00,49.1,37.8,30.19,East,97,1.4,3.4,65,0.00,,,-99.99,open2300 version1.11,2013-10-28 18:00:00,
2013-10-28 14:05:00,49.1,37.8,30.19,ESE,114,1.7,4.7,65,0.00,,,-99.99,open2300 version1.11,2013-10-28 18:05:00,
2013-10-28 14:15:00,49.1,37.8,30.19,ENE,76,1.6,5.6,65,0.00,,,-99.99,open2300 version1.11,2013-10-28 18:15:00,
2013-10-28 14:20:00,49.1,37.4,30.19,East,85,1.7,4.5,64,0.00,,,-99.99,open2300 version1.11,2013-10-28 18:20:00,
2013-10-28 14:25:00,48.9,37.2,30.19,East,86,1.1,4.5,64,0.00,,,-99.99,open2300 version1.11,2013-10-28 18:25:00,
2013-10-28 14:30:00,48.9,37.2,30.19,ESE,110,0.4,3.4,64,0.00,,,-99.99,open2300 version1.11,2013-10-28 18:30:00,
2013-10-28 14:35:00,48.7,37.5,30.19,ESE,112,0.2,4.0,65,0.00,,,-99.99,open2300 version1.11,2013-10-28 18:35:00,
2013-10-28 14:45:00,48.7,37.1,30.19,East,99,1.5,5.6,64,0.00,,,-99.99,open2300 version1.11,2013-10-28 18:45:00,
2013-10-28 14:50:00,48.6,36.9,30.19,ESE,112,0.5,4.7,64,0.00,,,-99.99,open2300 version1.11,2013-10-28 18:50:00,
2013-10-28 14:55:00,48.6,36.9,30.19,ENE,63,0.8,4.0,64,0.00,,,-99.99,open2300 version1.11,2013-10-28 18:55:00,
2013-10-28 15:00:00,48.4,37.1,30.19,NE,45,0.1,1.8,65,0.00,,,-99.99,open2300 version1.11,2013-10-28 19:00:00,
2013-10-28 15:05:00,48.4,37.1,30.19,NE,48,0.8,4.2,65,0.00,,,-99.99,open2300 version1.11,2013-10-28 19:05:00,
2013-10-28 15:15:00,48.0,36.8,30.20,East,87,1.1,6.0,65,0.00,,,-99.99,open2300 version1.11,2013-10-28 19:15:00,
2013-10-28 15:20:00,47.8,36.6,30.20,ENE,76,1.2,4.0,65,0.00,,,-99.99,open2300 version1.11,2013-10-28 19:20:00,
2013-10-28 15:25:00,47.8,36.6,30.19,ENE,67,0.5,2.2,65,0.00,,,-99.99,open2300 version1.11,2013-10-28 19:25:00,
2013-10-28 15:30:00,47.5,36.3,30.20,ESE,111,0.9,4.5,65,0.00,,,-99.99,open2300 version1.11,2013-10-28 19:30:00,
2013-10-28 15:40:00,47.1,35.9,30.20,East,87,2.5,6.0,65,0.00,,,-99.99,open2300 version1.11,2013-10-28 19:40:00,
2013-10-28 15:50:00,46.9,36.1,30.20,East,101,1.9,6.0,66,0.00,,,-99.99,open2300 version1.11,2013-10-28 19:50:00,
2013-10-28 15:55:00,46.8,36.0,30.20,East,83,1.5,5.8,66,0.00,,,-99.99,open2300 version1.11,2013-10-28 19:55:00,
2013-10-28 16:00:00,46.6,35.8,30.20,ESE,109,1.5,6.0,66,0.00,,,-99.99,open2300 version1.11,2013-10-28 20:00:00,
2013-10-28 16:05:00,46.2,35.5,30.21,East,89,2.1,5.4,66,0.00,,,-99.99,open2300 version1.11,2013-10-28 20:05:00,
2013-10-28 16:10:00,46.2,35.5,30.20,East,84,0.9,3.1,66,0.00,,,-99.99,open2300 version1.11,2013-10-28 20:10:00,
2013-10-28 16:15:00,46.0,35.7,30.20,ENE,61,1.1,3.6,67,0.00,,,-99.99,open2300 version1.11,2013-10-28 20:15:00,
2013-10-28 16:20:00,45.9,35.5,30.20,ENE,73,1.8,6.7,67,0.00,,,-99.99,open2300 version1.11,2013-10-28 20:20:00,
2013-10-28 16:25:00,45.7,35.7,30.21,NE,49,0.8,4.7,68,0.00,,,-99.99,open2300 version1.11,2013-10-28 20:25:00,
2013-10-28 16:35:00,45.3,35.4,30.21,ENE,71,0.9,3.6,68,0.00,,,-99.99,open2300 version1.11,2013-10-28 20:35:00,
2013-10-28 16:45:00,45.0,35.0,30.21,East,95,1.2,5.4,68,0.00,,,-99.99,open2300 version1.11,2013-10-28 20:45:00,
2013-10-28 16:55:00,44.8,34.8,30.21,East,88,0.9,3.1,68,0.00,,,-99.99,open2300 version1.11,2013-10-28 20:55:00,
2013-10-28 17:00:00,44.4,34.5,30.21,East,85,0.7,4.0,68,0.00,,,-99.99,open2300 version1.11,2013-10-28 21:00:00,
2013-10-28 17:05:00,44.4,34.5,30.21,East,83,0.6,2.9,68,0.00,,,-99.99,open2300 version1.11,2013-10-28 21:05:00,
2013-10-28 17:10:00,44.4,34.5,30.21,East,91,1.0,2.9,68,0.00,,,-99.99,open2300 version1.11,2013-10-28 21:10:00,
2013-10-28 17:15:00,44.2,34.3,30.21,East,99,1.0,3.1,68,0.00,,,-99.99,open2300 version1.11,2013-10-28 21:15:00,
2013-10-28 17:20:00,44.1,34.2,30.21,ENE,70,1.2,4.7,68,0.00,,,-99.99,open2300 version1.11,2013-10-28 21:20:00,
2013-10-28 17:25:00,43.9,34.0,30.21,East,96,1.8,6.0,68,0.00,,,-99.99,open2300 version1.11,2013-10-28 21:25:00,
2013-10-28 17:30:00,43.9,34.0,30.21,East,88,1.2,5.4,68,0.00,,,-99.99,open2300 version1.11,2013-10-28 21:30:00,
2013-10-28 17:35:00,43.7,33.8,30.21,ENE,75,0.2,1.8,68,0.00,,,-99.99,open2300 version1.11,2013-10-28 21:35:00,
2013-10-28 17:40:00,43.7,33.8,30.21,East,96,0.5,2.5,68,0.00,,,-99.99,open2300 version1.11,2013-10-28 21:40:00,
2013-10-28 17:50:00,43.5,33.7,30.21,NE,45,0.2,2.2,68,0.00,,,-99.99,open2300 version1.11,2013-10-28 21:50:00,
2013-10-28 18:00:00,43.3,33.5,30.21,East,90,0.9,2.9,68,0.00,,,-99.99,open2300 version1.11,2013-10-28 22:00:00,
2013-10-28 18:05:00,43.2,33.3,30.21,East,93,0.6,2.5,68,0.00,,,-99.99,open2300 version1.11,2013-10-28 22:05:00,
2013-10-28 18:10:00,43.2,32.9,30.21,ESE,111,1.5,4.5,67,0.00,,,-99.99,open2300 version1.11,2013-10-28 22:10:00,
2013-10-28 18:15:00,43.0,32.8,30.21,ESE,102,1.3,5.1,67,0.00,,,-99.99,open2300 version1.11,2013-10-28 22:15:00,
2013-10-28 18:30:00,42.6,32.4,30.22,ENE,78,0.6,3.6,67,0.00,,,-99.99,open2300 version1.11,2013-10-28 22:30:00,
2013-10-28 18:35:00,42.6,32.4,30.22,East,93,0.6,3.6,67,0.00,,,-99.99,open2300 version1.11,2013-10-28 22:35:00,
2013-10-28 18:40:00,42.6,32.4,30.22,ESE,105,0.1,1.3,67,0.00,,,-99.99,open2300 version1.11,2013-10-28 22:40:00,
2013-10-28 18:45:00,42.4,32.6,30.22,ENE,67,0.0,0.0,68,0.00,,,-99.99,open2300 version1.11,2013-10-28 22:45:00,
2013-10-28 18:50:00,42.4,32.6,30.22,East,97,0.3,2.7,68,0.00,,,-99.99,open2300 version1.11,2013-10-28 22:50:00,
2013-10-28 18:55:00,42.4,32.6,30.22,ENE,74,0.7,2.9,68,0.00,,,-99.99,open2300 version1.11,2013-10-28 22:55:00,
2013-10-28 19:05:00,42.3,32.5,30.22,ENE,67,0.1,1.1,68,0.00,,,-99.99,open2300 version1.11,2013-10-28 23:05:00,
2013-10-28 19:10:00,42.1,32.3,30.23,East,101,0.1,1.1,68,0.00,,,-99.99,open2300 version1.11,2013-10-28 23:10:00,
2013-10-28 19:15:00,42.1,32.3,30.23,ESE,112,0.1,1.1,68,0.00,,,-99.99,open2300 version1.11,2013-10-28 23:15:00,
2013-10-28 19:25:00,42.1,32.3,30.23,ESE,112,0.2,1.8,68,0.00,,,-99.99,open2300 version1.11,2013-10-28 23:25:00,
2013-10-28 19:35:00,41.7,31.6,30.23,ESE,103,0.4,3.6,67,0.00,,,-99.99,open2300 version1.11,2013-10-28 23:35:00,
2013-10-28 19:40:00,41.7,31.6,30.23,ENE,78,0.8,4.0,67,0.00,,,-99.99,open2300 version1.11,2013-10-28 23:40:00,
2013-10-28 19:45:00,41.7,31.9,30.23,East,83,0.6,3.8,68,0.00,,,-99.99,open2300 version1.11,2013-10-28 23:45:00,
2013-10-28 19:50:00,41.5,31.8,30.24,East,80,0.4,2.2,68,0.00,,,-99.99,open2300 version1.11,2013-10-28 23:50:00,
2013-10-28 19:55:00,41.5,31.8,30.24,ENE,67,0.1,0.9,68,0.00,,,-99.99,open2300 version1.11,2013-10-28 23:55:00,
2013-10-28 20:05:00,41.5,31.8,30.23,ENE,67,0.0,0.0,68,0.00,,,-99.99,open2300 version1.11,2013-10-29 00:05:00,
2013-10-28 20:15:00,41.4,31.6,30.24,East,94,0.2,1.6,68,0.00,,,-99.99,open2300 version1.11,2013-10-29 00:15:00,
2013-10-28 20:20:00,41.4,31.6,30.25,NE,45,0.0,0.0,68,0.00,,,-99.99,open2300 version1.11,2013-10-29 00:20:00,
2013-10-28 20:25:00,41.2,31.4,30.25,NE,45,0.0,0.7,68,0.00,,,-99.99,open2300 version1.11,2013-10-29 00:25:00,
2013-10-28 20:30:00,41.2,31.4,30.25,ENE,67,0.1,1.1,68,0.00,,,-99.99,open2300 version1.11,2013-10-29 00:30:00,
2013-10-28 20:35:00,41.2,31.4,30.25,ENE,64,0.2,2.0,68,0.00,,,-99.99,open2300 version1.11,2013-10-29 00:35:00,
2013-10-28 20:40:00,40.8,31.1,30.25,ESE,114,0.5,3.6,68,0.00,,,-99.99,open2300 version1.11,2013-10-29 00:40:00,
2013-10-28 20:50:00,40.8,31.1,30.25,East,90,0.0,0.0,68,0.00,,,-99.99,open2300 version1.11,2013-10-29 00:50:00,
2013-10-28 20:55:00,40.8,31.1,30.25,NNW,348,0.1,1.1,68,0.00,,,-99.99,open2300 version1.11,2013-10-29 00:55:00,
2013-10-28 21:00:00,40.8,31.1,30.25,NE,49,0.5,2.2,68,0.00,,,-99.99,open2300 version1.11,2013-10-29 01:00:00,
2013-10-28 21:10:00,40.6,30.9,30.25,NNE,22,0.0,0.0,68,0.00,,,-99.99,open2300 version1.11,2013-10-29 01:10:00,
2013-10-28 21:15:00,40.6,30.9,30.25,East,90,0.0,0.0,68,0.00,,,-99.99,open2300 version1.11,2013-10-29 01:15:00,
2013-10-28 21:20:00,40.6,30.9,30.25,ESE,117,0.2,2.9,68,0.00,,,-99.99,open2300 version1.11,2013-10-29 01:20:00,
2013-10-28 21:25:00,40.6,30.9,30.25,ESE,123,0.1,1.8,68,0.00,,,-99.99,open2300 version1.11,2013-10-29 01:25:00,
2013-10-28 21:30:00,40.6,30.9,30.26,East,90,0.0,0.0,68,0.00,,,-99.99,open2300 version1.11,2013-10-29 01:30:00,
2013-10-28 21:35:00,40.6,30.9,30.26,ESE,112,0.0,0.0,68,0.00,,,-99.99,open2300 version1.11,2013-10-29 01:35:00,
2013-10-28 21:40:00,40.6,30.9,30.26,ENE,67,0.1,0.7,68,0.00,,,-99.99,open2300 version1.11,2013-10-29 01:40:00,
2013-10-28 21:45:00,40.5,30.3,30.26,ENE,67,0.4,2.0,67,0.00,,,-99.99,open2300 version1.11,2013-10-29 01:45:00,
2013-10-28 21:50:00,40.6,30.9,30.26,ESE,112,0.0,0.0,68,0.00,,,-99.99,open2300 version1.11,2013-10-29 01:50:00,
2013-10-28 22:00:00,40.5,30.3,30.26,ESE,102,0.6,3.6,67,0.00,,,-99.99,open2300 version1.11,2013-10-29 02:00:00,
2013-10-28 22:05:00,40.3,30.1,30.26,East,91,0.5,4.5,67,0.00,,,-99.99,open2300 version1.11,2013-10-29 02:05:00,
2013-10-28 22:10:00,40.3,30.1,30.27,ESE,112,0.0,0.0,67,0.00,,,-99.99,open2300 version1.11,2013-10-29 02:10:00,
2013-10-28 22:20:00,40.3,30.1,30.27,East,90,0.1,2.0,67,0.00,,,-99.99,open2300 version1.11,2013-10-29 02:20:00,
2013-10-28 22:25:00,40.3,30.1,30.27,ENE,67,0.1,1.8,67,0.00,,,-99.99,open2300 version1.11,2013-10-29 02:25:00,
2013-10-28 22:30:00,40.3,30.1,30.27,NNE,22,0.0,0.9,67,0.00,,,-99.99,open2300 version1.11,2013-10-29 02:30:00,
2013-10-28 22:40:00,40.3,30.1,30.28,East,96,0.2,2.2,67,0.00,,,-99.99,open2300 version1.11,2013-10-29 02:40:00,
2013-10-28 22:50:00,40.1,30.3,30.28,ESE,105,0.1,1.3,68,0.00,,,-99.99,open2300 version1.11,2013-10-29 02:50:00,
2013-10-28 22:55:00,39.9,30.2,30.28,ENE,67,0.0,0.0,68,0.00,,,-99.99,open2300 version1.11,2013-10-29 02:55:00,
2013-10-28 23:00:00,39.9,30.2,30.28,NE,39,0.1,2.2,68,0.00,,,-99.99,open2300 version1.11,2013-10-29 03:00:00,
2013-10-28 23:05:00,39.9,30.2,30.28,ESE,103,0.2,2.7,68,0.00,,,-99.99,open2300 version1.11,2013-10-29 03:05:00,
2013-10-28 23:10:00,39.7,30.0,30.28,NNE,17,0.3,1.6,68,0.00,,,-99.99,open2300 version1.11,2013-10-29 03:10:00,
2013-10-28 23:20:00,39.7,30.4,30.28,ESE,112,0.0,0.0,69,0.00,,,-99.99,open2300 version1.11,2013-10-29 03:20:00,
2013-10-28 23:25:00,39.7,30.4,30.29,ENE,60,0.4,3.1,69,0.00,,,-99.99,open2300 version1.11,2013-10-29 03:25:00,
2013-10-28 23:30:00,39.6,30.2,30.29,East,90,0.4,1.6,69,0.00,,,-99.99,open2300 version1.11,2013-10-29 03:30:00,
2013-10-28 23:35:00,39.6,30.2,30.28,NNE,22,0.2,2.5,69,0.00,,,-99.99,open2300 version1.11,2013-10-29 03:35:00,
2013-10-28 23:40:00,39.6,30.2,30.28,NE,54,0.2,1.8,69,0.00,,,-99.99,open2300 version1.11,2013-10-29 03:40:00,
2013-10-28 23:45:00,39.4,30.0,30.28,ESE,108,0.4,5.4,69,0.00,,,-99.99,open2300 version1.11,2013-10-29 03:45:00,
2013-10-28 23:50:00,39.4,30.0,30.29,NNE,15,0.1,2.2,69,0.00,,,-99.99,open2300 version1.11,2013-10-29 03:50:00,
2013-10-28 23:55:00,39.4,30.0,30.29,ESE,112,0.0,0.0,69,0.00,,,-99.99,open2300 version1.11,2013-10-29 03:55:00,